Location: Hermaringen
(48.5952°N, 10.2585°E)
Time: 05:15:11
(UTC+00:00)

SJ 16-02 - Pass Details

Date: 18 November 2025
Orbit: 585 x 594 km, 75.0° (Epoch: 10 December)

Event Time Altitude Azimuth Distance (km) Brightness Sun altitude
Rises 18:17:06 0° 220° (SW) 2,826 5.3 -26.4°
Reaches altitude 10° 18:19:26 10° 228° (SW) 1,928 4.5 -26.8°
Maximum altitude 18:23:29 40° 298° (WNW) 893 2.5 -27.4°
Enters shadow 18:24:17 36° 326° (NW) 956 2.5 -27.6°
